Flag for Poland Weather past 2 weeks in Rzeszów, Poland

Now
54 °F

Passing clouds.


Feels Like: 51 °F
Forecast: 47 / 56 °F
Wind: 9 mph from East

Location: Rzeszow-Jasionka

Current Time: Oct 2, 2014 at 10:26:23 AM

Latest Report: Oct 2, 2014 at 10:00 AM


Visibility: N/A

Pressure: 30.36 "Hg

Humidity: 77%

Dew point: 46 °F

Location of RzeszówLocation

Historic Weather in Rzeszów — Graph

°F

Rzeszów temperature yesterday

Maximum temperature yesterday: 61 °F (at 1:00 AM)
Minimum temperature yesterday: 55 °F (at 8:00 PM)
Average temperature yesterday: 58 °F

Past Weeks' High & Low Weather Summary

 TemperatureHumidityPressure
High73 °F (Sep 19, 2:30 PM)100% (Sep 18, 5:00 AM)30.42 "Hg (Sep 18, 5:00 AM)
Low36 °F (Sep 27, 5:00 AM)38% (Sep 18, 5:30 PM)29.62 "Hg (Sep 22, 8:00 AM)
Average54 °F84%30.10 "Hg
* Reported Sep 17 9:00 AM — Oct 2 9:30 AM, Rzeszów, Weather by CustomWeather, © 2014

Note: Actual official high and low records may vary slightly from our data, if they occured in-between our weather recording intervals... More about our weather records

Advertising

Rzeszów weather history for previous 24 hours

 ConditionsComfort  
Time TempWeatherWind HumidityBarometerVisibility
9:30 AM
Oct 2
54 °FPassing clouds.8 mph77%30.36 "HgN/A
9:00 AM52 °FPassing clouds.9 mph77%30.36 "HgN/A
8:30 AM52 °FSunny.8 mph77%30.33 "Hg10 mi
8:00 AM52 °FSunny.6 mph77%30.33 "Hg10 mi
7:30 AM50 °FClear.5 mph82%30.33 "Hg10 mi
7:00 AM50 °FClear.5 mph82%30.33 "Hg10 mi
6:30 AM50 °FClear.5 mph82%30.30 "Hg10 mi
6:00 AM52 °FClear.5 mph77%30.30 "Hg10 mi
5:30 AM52 °FClear.5 mph77%30.30 "Hg10 mi
5:00 AM52 °FClear.6 mph82%30.30 "Hg10 mi
4:30 AM52 °FPassing clouds.6 mph82%30.30 "HgN/A
4:00 AM52 °FPassing clouds.6 mph82%30.30 "HgN/A
3:30 AM54 °FPassing clouds.7 mph77%30.30 "HgN/A
3:00 AM54 °FPassing clouds.8 mph82%30.30 "HgN/A
2:30 AM54 °FPassing clouds.8 mph82%30.30 "HgN/A
2:00 AM54 °FClear.8 mph88%30.30 "Hg10 mi
1:30 AM54 °FOvercast.7 mph88%30.30 "HgN/A
1:00 AM54 °FOvercast.8 mph94%30.30 "HgN/A
12:30 AM54 °FOvercast.8 mph94%30.30 "HgN/A
12:00 AM55 °FOvercast.7 mph88%30.30 "HgN/A
11:30 PM
Oct 1
55 °FOvercast.8 mph88%30.30 "HgN/A
11:00 PM55 °FOvercast.8 mph88%30.30 "HgN/A
10:30 PM55 °FMostly cloudy.9 mph88%30.33 "HgN/A
10:00 PM55 °FOvercast.8 mph88%30.33 "HgN/A
9:30 PM55 °FMostly cloudy.8 mph88%30.30 "HgN/A
9:00 PM55 °FMostly cloudy.8 mph88%30.30 "HgN/A
8:30 PM55 °FOvercast.9 mph94%30.33 "HgN/A
8:00 PM55 °FOvercast.8 mph88%30.30 "Hg5 mi
7:30 PM57 °FOvercast.10 mph88%30.30 "Hg5 mi
7:00 PM57 °FOvercast.9 mph88%30.30 "Hg5 mi
6:30 PM57 °FOvercast.9 mph94%30.30 "Hg4 mi
6:00 PM57 °FMore clouds than sun.9 mph94%30.30 "Hg4 mi
5:30 PM59 °FBroken clouds.10 mph88%30.30 "Hg4 mi
5:00 PM59 °FBroken clouds.8 mph94%30.30 "Hg4 mi
4:30 PM61 °FPartly sunny.10 mph88%30.30 "Hg4 mi
4:00 PM61 °FPartly sunny.10 mph88%30.30 "Hg4 mi
3:30 PM61 °FOvercast.8 mph88%30.30 "Hg4 mi
3:00 PM61 °FMore clouds than sun.8 mph88%30.30 "Hg4 mi
2:30 PM61 °FMore clouds than sun.7 mph94%30.30 "Hg4 mi
2:00 PM61 °FMostly cloudy.8 mph94%30.30 "Hg4 mi
1:30 PM61 °FFog.7 mph94%30.30 "Hg3 mi
1:00 PM61 °FFog.8 mph94%30.30 "Hg2 mi
12:30 PM61 °FFog.8 mph94%30.30 "Hg2 mi
12:00 PM59 °FFog.8 mph100%30.30 "Hg2 mi
11:30 AM59 °FSprinkles. Fog.8 mph100%30.30 "Hg1 mi
11:00 AM59 °FSprinkles. Fog.7 mph100%30.30 "Hg1 mi
10:30 AM59 °FFog.7 mph100%30.30 "Hg1 mi
10:00 AM59 °FFog.6 mph100%30.30 "Hg1 mi
Weather by CustomWeather, © 2014

See weather overviewHow to use our weather pages